Weather History for Eureka, NU

Change the Weather History Date:

Thursday, December 13, 2012

  Actual Average Record
Temperature  
Mean Temperature -28 °F -  
Max Temperature -22 °F -26 °F 8 °F (1996)
Min Temperature -35 °F -39 °F -45 °F (1999)
Degree Days  
Heating Degree Days 94    
Moisture  
Dew Point -34 °F    
Average Humidity 63    
Maximum Humidity 69    
Minimum Humidity 43    
Precipitation  
Precipitation 0.00 in 0.00 in - ()
Sea Level Pressure  
Sea Level Pressure 30.06 in    
Wind  
Wind Speed 5 mph ()    
Max Wind Speed 10 mph    
Max Gust Speed -    
Visibility 15.0 miles    
Events Snow    
Averages and records for this station are not official NWS values.
T = Trace of Precipitation, MM = Missing Value Source: Averaged Metar Reports

Daily Weather History Graph

Daily Weather History Graph

Search for Another Location

Airport:

Trip Planner

Search our weather history database for the weather conditions in past years. The results will help you decide how hot, cold, wet, or windy it might be!

Date:

Astronomy

Dec. 31, 1969 Rise Set
Actual Time Sun does not rise Sun does not rise
Civil Twilight Sun does not rise Sun does not rise
Nautical Twilight Sun does not rise Sun does not rise
Astronomical Twilight 7:36 AM CST 3:39 PM CST
Moon No Moon Rise No Moon Set
Length of Visible Light 0h 00m
Length of Day
0h 00m
New Moon, 0% of the Moon is Illuminated
Dec 13
New Moon
Dec 19
First Quarter
Dec 28
Full
Jan 4
Last Quarter
Jan 11
New

Hourly Weather History & Observations

Time (CST) Temp. Windchill Dew Point Humidity Pressure Visibility Wind Dir Wind Speed Gust Speed Precip Events Conditions
12:00 AM -25 °F - -34 °F 43% 30.04 in 15 mi Calm Calm - - Snow Snow
12:00 AM -25.6 °F - -34.6 °F 63% 30.04 in 15.0 mi Calm Calm - N/A   Clear
1:00 AM -27.4 °F -39.2 °F -34.6 °F 69% 30.04 in 15.0 mi South 3.5 mph - N/A   Clear
2:00 AM -25.6 °F -39.8 °F -32.8 °F 69% 30.05 in 15.0 mi SSE 4.6 mph - N/A   Clear
3:00 AM -23.8 °F -39.8 °F -31.0 °F 69% 30.05 in 15.0 mi SSE 5.8 mph - N/A   Clear
4:00 AM -23.8 °F -43.2 °F -31.0 °F 69% 30.05 in 15.0 mi SSE 8.1 mph - N/A   Clear
5:00 AM -23.8 °F -44.5 °F -31.0 °F 69% 30.06 in 15.0 mi SE 9.2 mph - N/A   Clear
6:00 AM -26 °F - -34 °F 51% 30.05 in 15 mi SE 6.9 mph - - Snow Snow
6:00 AM -25.6 °F -41.9 °F -32.8 °F 69% 30.05 in 15.0 mi SE 5.8 mph - N/A   Clear
7:00 AM -25.6 °F -46.8 °F -34.6 °F 63% 30.06 in 15.0 mi SSE 9.2 mph - N/A   Clear
8:00 AM -25.6 °F -46.8 °F -34.6 °F 63% 30.06 in 15.0 mi SSE 9.2 mph - N/A   Clear
9:00 AM -22.0 °F -41.0 °F -29.2 °F 69% 30.06 in 15.0 mi SE 8.1 mph - N/A   Clear
10:00 AM -23.8 °F -43.2 °F -31.0 °F 69% 30.06 in 15.0 mi SE 8.1 mph - N/A   Clear
11:00 AM -27.4 °F -49.0 °F -36.4 °F 62% 30.06 in 15.0 mi SSE 9.2 mph - N/A   Clear
12:00 PM -25 °F - -32 °F 53% 30.06 in 15 mi SSE 10.4 mph - - Snow Snow
12:00 PM -23.8 °F -44.5 °F -32.8 °F 63% 30.06 in 15.0 mi SSE 9.2 mph - N/A   Clear
1:00 PM -22.0 °F -35.6 °F -31.0 °F 63% 30.07 in 15.0 mi South 4.6 mph - N/A   Clear
2:00 PM -27.4 °F -41.9 °F -36.4 °F 62% 30.07 in 15.0 mi South 4.6 mph - N/A   Clear
3:00 PM -25.6 °F -39.8 °F -34.6 °F 63% 30.08 in 15.0 mi SSE 4.6 mph - N/A   Clear
3:49 PM - - - N/A% - 15.0 mi South 4.6 mph - N/A   Clear
4:00 PM -27.4 °F -41.9 °F -36.4 °F 62% 30.08 in 15.0 mi SSE 4.6 mph - N/A   Clear
6:00 PM -29.2 °F -51.2 °F -38.2 °F 62% 30.07 in 15.0 mi SE 9.2 mph - N/A   Clear
7:00 PM -27.4 °F -50.3 °F -36.4 °F 62% 30.07 in 15.0 mi SE 10.4 mph - N/A   Clear
7:41 PM - - - N/A% - 15.0 mi Calm Calm - N/A   Clear
8:00 PM -27.4 °F -39.2 °F -36.4 °F 62% 30.07 in 15.0 mi South 3.5 mph - N/A   Clear
9:00 PM -23.8 °F -43.2 °F -32.8 °F 63% 30.06 in 15.0 mi SSE 8.1 mph - N/A   Clear